DIRECTV 15

Last updated on Wed Sep 17 2025 00:02:48 GMT+0000 (Coordinated Universal Time)

1 40663U 15026A 25259.56327859 -.00000122 00000+0 00000+0 0 9995 2 40663 0.0323 95.1537 0000138 85.0737 275.4516 1.00268753 37711
UTC large
Height (km)
Speed (km/s)
/
Latitude / Longitude
Inclination (degrees)
Orbital Period (minutes)
Azimuth
Elevation
Range (km)
Doppler Factor

Next 0 passes for location: London (51.5072 / 0.1276)

Sorry there are no passes over London.